Time,TemperatureF,DewpointF,PressureIn,WindDirection,WindDirectionDegrees,WindSpeedMPH,WindSpeedGustMPH,Humidity,HourlyPrecipIn,Conditions,Clouds,dailyrainin,SoftwareType,DateUTC
2013-01-21 00:07:00,63.3,53.7,29.95,NE,45,4.7,-999.0,71,-99.99,,,0.00,Acu-Link.com,2013-01-21 05:07:00,
2013-01-21 00:22:00,63.3,53.7,29.94,NNE,22,6.8,-999.0,71,-99.99,,,0.00,Acu-Link.com,2013-01-21 05:22:00,
2013-01-21 00:54:00,63.3,53.7,29.94,ENE,67,4.2,-999.0,71,-99.99,,,0.00,Acu-Link.com,2013-01-21 05:54:00,
2013-01-21 01:09:00,63.5,53.9,29.94,NNE,22,4.2,-999.0,71,-99.99,,,0.00,Acu-Link.com,2013-01-21 06:09:00,
2013-01-21 01:40:00,63.7,54.1,29.94,NNE,22,4.2,-999.0,71,-99.99,,,0.00,Acu-Link.com,2013-01-21 06:40:00,
2013-01-21 01:55:00,63.7,54.1,29.93,NNW,337,3.2,-999.0,71,-99.99,,,0.00,Acu-Link.com,2013-01-21 06:55:00,
2013-01-21 02:10:00,63.7,54.1,29.92,NNE,22,4.7,-999.0,71,-99.99,,,0.00,Acu-Link.com,2013-01-21 07:10:00,
2013-01-21 02:26:00,63.7,54.5,29.92,NE,45,3.2,-999.0,72,-99.99,,,0.00,Acu-Link.com,2013-01-21 07:26:00,
2013-01-21 02:41:00,64.0,54.8,29.91,NE,45,4.2,-999.0,72,-99.99,,,0.00,Acu-Link.com,2013-01-21 07:41:00,
2013-01-21 03:42:00,64.2,55.0,29.91,NE,45,3.7,-999.0,72,-99.99,,,0.00,Acu-Link.com,2013-01-21 08:42:00,
2013-01-21 03:57:00,64.0,54.8,29.90,NE,45,3.2,-999.0,72,-99.99,,,0.00,Acu-Link.com,2013-01-21 08:57:00,
2013-01-21 04:16:00,63.9,55.1,29.90,NNW,337,3.2,-999.0,73,-99.99,,,0.00,Acu-Link.com,2013-01-21 09:16:00,
2013-01-21 04:32:00,63.5,54.7,29.90,NE,45,2.7,-999.0,73,-99.99,,,0.00,Acu-Link.com,2013-01-21 09:32:00,
2013-01-21 04:47:00,63.1,54.7,29.89,NNW,337,3.2,-999.0,74,-99.99,,,0.00,Acu-Link.com,2013-01-21 09:47:00,
2013-01-21 05:02:00,63.0,54.6,29.89,NW,315,2.2,-999.0,74,-99.99,,,0.00,Acu-Link.com,2013-01-21 10:02:00,
2013-01-21 05:17:00,62.6,54.2,29.89,NW,315,2.7,-999.0,74,-99.99,,,0.00,Acu-Link.com,2013-01-21 10:17:00,
2013-01-21 05:32:00,62.6,54.6,29.89,NNE,22,3.2,-999.0,75,-99.99,,,0.00,Acu-Link.com,2013-01-21 10:32:00,
2013-01-21 05:48:00,62.8,54.8,29.89,NW,315,3.2,-999.0,75,-99.99,,,0.00,Acu-Link.com,2013-01-21 10:48:00,
2013-01-21 06:03:00,63.0,54.9,29.89,North,0,2.7,-999.0,75,-99.99,,,0.00,Acu-Link.com,2013-01-21 11:03:00,
2013-01-21 06:18:00,63.0,54.9,29.90,North,0,3.2,-999.0,75,-99.99,,,0.00,Acu-Link.com,2013-01-21 11:18:00,
2013-01-21 06:34:00,63.0,55.3,29.90,NNE,22,3.2,-999.0,76,-99.99,,,0.00,Acu-Link.com,2013-01-21 11:34:00,
2013-01-21 06:49:00,63.0,55.3,29.91,WNW,292,0.0,-999.0,76,-99.99,,,0.00,Acu-Link.com,2013-01-21 11:49:00,
2013-01-21 07:04:00,62.6,54.9,29.91,West,270,1.7,-999.0,76,-99.99,,,0.00,Acu-Link.com,2013-01-21 12:04:00,
2013-01-21 07:20:00,62.6,55.3,29.91,NW,315,2.7,-999.0,77,-99.99,,,0.00,Acu-Link.com,2013-01-21 12:20:00,
2013-01-21 07:35:00,62.6,55.6,29.93,SSW,202,1.1,-999.0,78,-99.99,,,0.00,Acu-Link.com,2013-01-21 12:35:00,
2013-01-21 07:50:00,62.6,55.6,29.93,SW,225,1.1,-999.0,78,-99.99,,,0.00,Acu-Link.com,2013-01-21 12:50:00,
2013-01-21 08:05:00,63.0,56.0,29.93,SW,225,2.2,-999.0,78,-99.99,,,0.00,Acu-Link.com,2013-01-21 13:05:00,
2013-01-21 08:21:00,63.0,55.7,29.94,NNW,337,3.7,-999.0,77,-99.99,,,0.00,Acu-Link.com,2013-01-21 13:21:00,
2013-01-21 08:36:00,63.1,55.8,29.94,NNW,337,4.7,-999.0,77,-99.99,,,0.00,Acu-Link.com,2013-01-21 13:36:00,
2013-01-21 08:51:00,63.9,56.5,29.95,NW,315,3.7,-999.0,77,-99.99,,,0.00,Acu-Link.com,2013-01-21 13:51:00,
2013-01-21 09:07:00,66.4,57.9,29.94,NNE,22,5.8,-999.0,74,-99.99,,,0.00,Acu-Link.com,2013-01-21 14:07:00,
2013-01-21 09:22:00,67.8,58.0,29.95,NNW,337,6.3,-999.0,71,-99.99,,,0.00,Acu-Link.com,2013-01-21 14:22:00,
2013-01-21 09:37:00,69.1,58.9,29.95,NE,45,3.7,-999.0,70,-99.99,,,0.00,Acu-Link.com,2013-01-21 14:37:00,
2013-01-21 09:52:00,69.4,59.2,29.96,NE,45,5.8,-999.0,70,-99.99,,,0.00,Acu-Link.com,2013-01-21 14:52:00,
2013-01-21 10:08:00,68.9,58.7,29.95,NE,45,7.3,-999.0,70,-99.99,,,0.00,Acu-Link.com,2013-01-21 15:08:00,
2013-01-21 10:23:00,70.9,60.2,29.96,NE,45,5.3,-999.0,69,-99.99,,,0.00,Acu-Link.com,2013-01-21 15:23:00,
2013-01-21 10:38:00,72.0,60.8,29.96,East,90,4.7,-999.0,68,-99.99,,,0.00,Acu-Link.com,2013-01-21 15:38:00,
2013-01-21 10:53:00,71.2,60.1,29.96,NNE,22,4.2,-999.0,68,-99.99,,,0.00,Acu-Link.com,2013-01-21 15:53:00,
2013-01-21 11:09:00,71.6,60.5,29.95,NE,45,3.7,-999.0,68,-99.99,,,0.00,Acu-Link.com,2013-01-21 16:09:00,
2013-01-21 11:24:00,71.4,60.7,29.95,East,90,4.2,-999.0,69,-99.99,,,0.00,Acu-Link.com,2013-01-21 16:24:00,
2013-01-21 11:39:00,71.6,60.9,29.94,East,90,2.7,-999.0,69,-99.99,,,0.00,Acu-Link.com,2013-01-21 16:39:00,
2013-01-21 11:55:00,72.0,61.3,29.93,WNW,292,3.7,-999.0,69,-99.99,,,0.00,Acu-Link.com,2013-01-21 16:55:00,
2013-01-21 12:10:00,71.6,60.9,29.92,NW,315,3.2,-999.0,69,-99.99,,,0.00,Acu-Link.com,2013-01-21 17:10:00,
2013-01-21 12:25:00,72.0,61.7,29.92,West,270,3.2,-999.0,70,-99.99,,,0.00,Acu-Link.com,2013-01-21 17:25:00,
2013-01-21 12:41:00,71.4,61.1,29.91,WNW,292,4.7,-999.0,70,-99.99,,,0.00,Acu-Link.com,2013-01-21 17:41:00,
2013-01-21 12:56:00,71.6,60.9,29.91,NE,45,3.7,-999.0,69,-99.99,,,0.00,Acu-Link.com,2013-01-21 17:56:00,
2013-01-21 13:11:00,71.6,61.3,29.89,NE,45,3.7,-999.0,70,-99.99,,,0.00,Acu-Link.com,2013-01-21 18:11:00,
2013-01-21 13:27:00,73.0,61.8,29.88,East,90,1.1,-999.0,68,-99.99,,,0.00,Acu-Link.com,2013-01-21 18:27:00,
2013-01-21 13:42:00,73.0,61.8,29.87,NE,45,1.7,-999.0,68,-99.99,,,0.00,Acu-Link.com,2013-01-21 18:42:00,
2013-01-21 13:57:00,73.9,61.8,29.86,NNE,22,3.7,-999.0,66,-99.99,,,0.00,Acu-Link.com,2013-01-21 18:57:00,
2013-01-21 14:12:00,73.4,61.3,29.87,West,270,2.7,-999.0,66,-99.99,,,0.00,Acu-Link.com,2013-01-21 19:12:00,
2013-01-21 14:28:00,74.7,62.1,29.86,NNW,337,3.7,-999.0,65,-99.99,,,0.00,Acu-Link.com,2013-01-21 19:28:00,
2013-01-21 14:43:00,73.8,61.7,29.86,WNW,292,1.7,-999.0,66,-99.99,,,0.00,Acu-Link.com,2013-01-21 19:43:00,
2013-01-21 14:58:00,72.3,60.7,29.87,SSW,202,1.7,-999.0,67,-99.99,,,0.00,Acu-Link.com,2013-01-21 19:58:00,
2013-01-21 15:14:00,72.0,60.4,29.86,West,270,1.1,-999.0,67,-99.99,,,0.00,Acu-Link.com,2013-01-21 20:14:00,
2013-01-21 15:29:00,72.0,60.8,29.86,SSE,157,0.0,-999.0,68,-99.99,,,0.00,Acu-Link.com,2013-01-21 20:29:00,
2013-01-21 15:44:00,70.9,61.0,29.86,SE,135,0.0,-999.0,71,-99.99,,,0.00,Acu-Link.com,2013-01-21 20:44:00,
2013-01-21 16:00:00,73.0,61.8,29.86,ESE,112,2.2,-999.0,68,-99.99,,,0.00,Acu-Link.com,2013-01-21 21:00:00,
2013-01-21 16:15:00,72.7,61.5,29.86,NNW,337,3.7,-999.0,68,-99.99,,,0.00,Acu-Link.com,2013-01-21 21:15:00,
2013-01-21 16:30:00,72.0,61.3,29.86,NW,315,3.2,-999.0,69,-99.99,,,0.00,Acu-Link.com,2013-01-21 21:30:00,
2013-01-21 16:45:00,71.8,60.7,29.86,NNW,337,4.2,-999.0,68,-99.99,,,0.00,Acu-Link.com,2013-01-21 21:45:00,
2013-01-21 17:01:00,71.6,60.9,29.86,NNW,337,3.7,-999.0,69,-99.99,,,0.00,Acu-Link.com,2013-01-21 22:01:00,
2013-01-21 17:16:00,71.1,60.0,29.87,NNE,22,3.7,-999.0,68,-99.99,,,0.00,Acu-Link.com,2013-01-21 22:16:00,
2013-01-21 17:31:00,70.7,60.0,29.86,NW,315,3.2,-999.0,69,-99.99,,,0.00,Acu-Link.com,2013-01-21 22:31:00,
2013-01-21 17:47:00,70.0,59.4,29.87,West,270,1.7,-999.0,69,-99.99,,,0.00,Acu-Link.com,2013-01-21 22:47:00,
2013-01-21 18:02:00,69.4,57.5,29.87,NNW,337,2.7,-999.0,66,-99.99,,,0.00,Acu-Link.com,2013-01-21 23:02:00,
2013-01-21 18:17:00,68.4,56.6,29.87,SSW,202,0.0,-999.0,66,-99.99,,,0.00,Acu-Link.com,2013-01-21 23:17:00,
2013-01-21 18:32:00,67.5,56.1,29.88,South,180,0.0,-999.0,67,-99.99,,,0.00,Acu-Link.com,2013-01-21 23:32:00,
2013-01-21 18:48:00,66.7,55.8,29.88,South,180,1.1,-999.0,68,-99.99,,,0.00,Acu-Link.com,2013-01-21 23:48:00,
2013-01-21 19:03:00,66.2,55.3,29.88,WSW,247,1.1,-999.0,68,-99.99,,,0.00,Acu-Link.com,2013-01-22 00:03:00,
2013-01-21 19:18:00,65.8,55.3,29.89,SSE,157,2.2,-999.0,69,-99.99,,,0.00,Acu-Link.com,2013-01-22 00:18:00,
2013-01-21 19:33:00,65.7,55.6,29.89,SW,225,3.2,-999.0,70,-99.99,,,0.00,Acu-Link.com,2013-01-22 00:33:00,
2013-01-21 19:49:00,65.1,55.1,29.89,WSW,247,2.2,-999.0,70,-99.99,,,0.00,Acu-Link.com,2013-01-22 00:49:00,
2013-01-21 20:04:00,64.8,55.2,29.89,SW,225,2.2,-999.0,71,-99.99,,,0.00,Acu-Link.com,2013-01-22 01:04:00,
2013-01-21 20:19:00,64.0,54.4,29.89,SSW,202,1.1,-999.0,71,-99.99,,,0.00,Acu-Link.com,2013-01-22 01:19:00,
2013-01-21 20:35:00,63.5,54.3,29.90,SW,225,2.2,-999.0,72,-99.99,,,0.00,Acu-Link.com,2013-01-22 01:35:00,
2013-01-21 20:50:00,63.1,54.3,29.90,SSE,157,1.7,-999.0,73,-99.99,,,0.00,Acu-Link.com,2013-01-22 01:50:00,
2013-01-21 21:06:00,63.1,54.3,29.92,WSW,247,1.7,-999.0,73,-99.99,,,0.00,Acu-Link.com,2013-01-22 02:06:00,
2013-01-21 21:21:00,63.1,54.3,29.91,West,270,2.7,-999.0,73,-99.99,,,0.00,Acu-Link.com,2013-01-22 02:21:00,
2013-01-21 21:36:00,62.6,54.2,29.91,WSW,247,2.7,-999.0,74,-99.99,,,0.00,Acu-Link.com,2013-01-22 02:36:00,
2013-01-21 21:51:00,62.4,54.0,29.92,WSW,247,3.7,-999.0,74,-99.99,,,0.00,Acu-Link.com,2013-01-22 02:51:00,
2013-01-21 22:07:00,62.2,53.8,29.93,ENE,67,3.2,-999.0,74,-99.99,,,0.00,Acu-Link.com,2013-01-22 03:07:00,
2013-01-21 22:22:00,62.1,53.7,29.93,West,270,2.7,-999.0,74,-99.99,,,0.00,Acu-Link.com,2013-01-22 03:22:00,
2013-01-21 22:37:00,62.1,53.7,29.93,WSW,247,2.7,-999.0,74,-99.99,,,0.00,Acu-Link.com,2013-01-22 03:37:00,
2013-01-21 22:53:00,62.4,54.0,29.93,NNW,337,5.3,-999.0,74,-99.99,,,0.00,Acu-Link.com,2013-01-22 03:53:00,
2013-01-21 23:08:00,62.4,54.0,29.93,East,90,2.2,-999.0,74,-99.99,,,0.00,Acu-Link.com,2013-01-22 04:08:00,
2013-01-21 23:23:00,62.2,53.8,29.92,WNW,292,3.7,-999.0,74,-99.99,,,0.00,Acu-Link.com,2013-01-22 04:23:00,
2013-01-21 23:39:00,61.9,53.5,29.93,SSW,202,1.1,-999.0,74,-99.99,,,0.00,Acu-Link.com,2013-01-22 04:39:00,
2013-01-21 23:54:00,61.5,53.5,29.92,West,270,1.1,-999.0,75,-99.99,,,0.00,Acu-Link.com,2013-01-22 04:54:00,